Owatonna, MN

1:49 AM CDT on May 27, 2017 (GMT -0500)
Owatonna Degner Regional

Weather History for KOWA - July, 2013

Change the Weather History Date:

Sunday, July 7, 2013

  Actual Average Record
Temperature  
Mean Temperature 80 °F -  
Max Temperature 89 °F 84 °F 98 °F (1985)
Min Temperature 71 °F 62 °F 45 °F (1984)
Cooling Degree Days 15    
Growing Degree Days 30 (Base 50)    
Moisture  
Dew Point 68 °F    
Average Humidity 63    
Maximum Humidity 94    
Minimum Humidity 49    
Precipitation  
Precipitation 0.83 in - - ()
Sea Level Pressure  
Sea Level Pressure 29.87 in    
Wind  
Wind Speed 9 mph (South)    
Max Wind Speed 20 mph    
Max Gust Speed 21 mph    
Visibility 10 miles    
Events Rain , Thunderstorm    
Averages and records for this station are not official NWS values.
T = Trace of Precipitation, MM = Missing Value Source: NWS Daily Summary

Daily Weather History Graph

Daily Weather History Graph

Search for Another Location

Airport or City:

Trip Planner

Search our weather history database for the weather conditions in past years. The results will help you decide how hot, cold, wet, or windy it might be!

Date:

Astronomy

Jul. 07, 2013 Rise Set
Actual Time 5:37 AM CDT 8:58 PM CDT
Civil Twilight 5:01 AM CDT 9:33 PM CDT
Nautical Twilight 4:15 AM CDT 10:20 PM CDT
Astronomical Twilight 3:16 AM CDT 11:18 PM CDT
Moon 5:16 AM CDT (7/7) 8:19 PM CDT (7/7)
Length of Visible Light 16h 32m
Length of Day
15h 20m
Waning Crescent, 0% of the Moon is Illuminated
Jul 7
Waning Crescent
Jul 8
New
Jul 15
First Quarter
Jul 22
Full
Jul 29
Last Quarter

Hourly Weather History & Observations

Time (CDT) Temp. Heat Index Dew Point Humidity Pressure Visibility Wind Dir Wind Speed Gust Speed Precip Events Conditions
12:14 AM 80.6 °F 82.7 °F 66.2 °F 61% 29.88 in 10.0 mi SSE 12.7 mph 18.4 mph N/A   Clear
12:34 AM 78.8 °F - 66.2 °F 65% 29.88 in 10.0 mi SSE 10.4 mph - N/A   Clear
12:54 AM 78.8 °F - 66.2 °F 65% 29.88 in 10.0 mi South 12.7 mph - N/A   Clear
1:14 AM 78.8 °F - 66.2 °F 65% 29.87 in 10.0 mi SSE 10.4 mph 18.4 mph N/A   Clear
1:34 AM 78.8 °F - 66.2 °F 65% 29.87 in 10.0 mi South 11.5 mph 20.7 mph N/A   Clear
1:54 AM 78.8 °F - 66.2 °F 65% 29.87 in 10.0 mi South 11.5 mph 17.3 mph N/A   Clear
2:14 AM 78.8 °F - 66.2 °F 65% 29.87 in 10.0 mi South 11.5 mph 18.4 mph N/A   Clear
2:34 AM 77.0 °F - 66.2 °F 69% 29.87 in 10.0 mi South 9.2 mph - N/A   Clear
2:54 AM 77.0 °F - 66.2 °F 69% 29.87 in 10.0 mi South 9.2 mph - N/A   Clear
3:14 AM 75.2 °F - 66.2 °F 73% 29.88 in 10.0 mi South 6.9 mph - N/A   Clear
3:34 AM 77.0 °F - 66.2 °F 69% 29.88 in 10.0 mi South 8.1 mph - N/A   Clear
3:54 AM 78.8 °F - 66.2 °F 65% 29.88 in 10.0 mi SSW 11.5 mph - N/A   Clear
4:14 AM 78.8 °F - 64.4 °F 61% 29.88 in 10.0 mi SSW 9.2 mph - N/A   Clear
4:34 AM 77.0 °F - 64.4 °F 65% 29.88 in 10.0 mi SSW 10.4 mph - N/A   Clear
4:54 AM 77.0 °F - 64.4 °F 65% 29.88 in 10.0 mi SSW 8.1 mph - N/A   Clear
5:14 AM 77.0 °F - 64.4 °F 65% 29.88 in 10.0 mi South 8.1 mph - N/A   Clear
5:34 AM 75.2 °F - 64.4 °F 69% 29.88 in 10.0 mi South 8.1 mph - N/A   Clear
5:54 AM 75.2 °F - 64.4 °F 69% 29.88 in 10.0 mi South 6.9 mph - N/A   Clear
6:14 AM 75.2 °F - 64.4 °F 69% 29.87 in 10.0 mi South 6.9 mph - N/A   Clear
6:34 AM 75.2 °F - 64.4 °F 69% 29.87 in 10.0 mi South 6.9 mph - N/A   Clear
6:54 AM 75.2 °F - 66.2 °F 73% 29.88 in 10.0 mi South 6.9 mph - N/A   Clear
7:14 AM 75.2 °F - 66.2 °F 73% 29.88 in 10.0 mi South 10.4 mph - N/A   Clear
7:34 AM 75.2 °F - 66.2 °F 73% 29.88 in 10.0 mi South 6.9 mph - N/A   Clear
7:54 AM 77.0 °F - 66.2 °F 69% 29.89 in 10.0 mi South 8.1 mph - N/A   Clear
8:15 AM 78.8 °F - 66.2 °F 65% 29.89 in 10.0 mi South 9.2 mph - N/A   Clear
8:34 AM 78.8 °F - 66.2 °F 65% 29.90 in 10.0 mi South 10.4 mph - N/A   Clear
8:54 AM 80.6 °F 82.7 °F 66.2 °F 61% 29.89 in 10.0 mi SSW 9.2 mph - N/A   Clear
9:14 AM 80.6 °F 82.7 °F 66.2 °F 61% 29.89 in 10.0 mi SSW 13.8 mph 17.3 mph N/A   Clear
9:34 AM 82.4 °F 84.6 °F 66.2 °F 58% 29.89 in 10.0 mi SW 8.1 mph - N/A   Clear
9:54 AM 82.4 °F 84.6 °F 66.2 °F 58% 29.89 in 10.0 mi SW 9.2 mph - N/A   Clear
10:14 AM 82.4 °F 84.6 °F 66.2 °F 58% 29.88 in 10.0 mi SW 8.1 mph - N/A   Clear
10:34 AM 84.2 °F 86.6 °F 66.2 °F 55% 29.88 in 10.0 mi WSW 8.1 mph - N/A   Clear
10:54 AM 84.2 °F 86.6 °F 66.2 °F 55% 29.88 in 10.0 mi WSW 4.6 mph - N/A   Clear
11:14 AM 84.2 °F 86.6 °F 66.2 °F 55% 29.88 in 10.0 mi SW 4.6 mph - N/A   Clear
11:34 AM 84.2 °F 86.6 °F 66.2 °F 55% 29.88 in 10.0 mi SW 4.6 mph - N/A   Clear
11:54 AM 84.2 °F 86.6 °F 66.2 °F 55% 29.88 in 10.0 mi South 3.5 mph - N/A   Clear
12:14 PM 86.0 °F 88.2 °F 66.2 °F 51% 29.88 in 10.0 mi SSE 5.8 mph - N/A   Clear
12:34 PM 86.0 °F 88.2 °F 66.2 °F 51% 29.88 in 10.0 mi South 5.8 mph - N/A   Clear
12:54 PM 87.8 °F 91.4 °F 68.0 °F 52% 29.88 in 10.0 mi South 6.9 mph - N/A   Scattered Clouds
1:14 PM 87.8 °F 91.4 °F 68.0 °F 52% 29.87 in 10.0 mi SE 8.1 mph - N/A   Scattered Clouds
1:34 PM 87.8 °F 91.4 °F 68.0 °F 52% 29.87 in 10.0 mi SSE 10.4 mph - N/A   Scattered Clouds
1:54 PM 89.6 °F 93.4 °F 68.0 °F 49% 29.87 in 10.0 mi South 8.1 mph 16.1 mph N/A   Clear
2:14 PM 89.6 °F 93.4 °F 68.0 °F 49% 29.87 in 10.0 mi South 4.6 mph - N/A   Clear
2:34 PM 89.6 °F 93.4 °F 68.0 °F 49% 29.87 in 10.0 mi SSE 10.4 mph 16.1 mph N/A   Clear
2:54 PM 89.6 °F 93.4 °F 68.0 °F 49% 29.87 in 10.0 mi South 6.9 mph - N/A   Clear
3:14 PM 89.6 °F 93.4 °F 68.0 °F 49% 29.87 in 10.0 mi South 10.4 mph - N/A   Scattered Clouds
3:34 PM 89.6 °F 93.4 °F 68.0 °F 49% 29.87 in 10.0 mi South 8.1 mph - N/A   Scattered Clouds
3:54 PM 89.6 °F 94.7 °F 69.8 °F 52% 29.86 in 10.0 mi South 8.1 mph - N/A   Clear
4:14 PM 89.6 °F 93.4 °F 68.0 °F 49% 29.86 in 10.0 mi South 5.8 mph - N/A   Scattered Clouds
4:34 PM 89.6 °F 94.7 °F 69.8 °F 52% 29.86 in 10.0 mi South 4.6 mph - N/A   Scattered Clouds
4:54 PM 89.6 °F 93.4 °F 68.0 °F 49% 29.85 in 10.0 mi SSE 9.2 mph - N/A   Scattered Clouds
5:14 PM 87.8 °F 92.6 °F 69.8 °F 55% 29.86 in 10.0 mi South 6.9 mph - N/A   Scattered Clouds
5:34 PM 87.8 °F 92.6 °F 69.8 °F 55% 29.85 in 10.0 mi South 5.8 mph - N/A   Scattered Clouds
5:54 PM 89.6 °F 96.2 °F 71.6 °F 55% 29.85 in 10.0 mi South 5.8 mph - N/A   Scattered Clouds
6:14 PM 89.6 °F 94.7 °F 69.8 °F 52% 29.84 in 10.0 mi South 6.9 mph - N/A   Clear
6:34 PM 87.8 °F 92.6 °F 69.8 °F 55% 29.84 in 10.0 mi South 5.8 mph - N/A   Scattered Clouds
6:54 PM 87.8 °F 92.6 °F 69.8 °F 55% 29.83 in 10.0 mi South 4.6 mph - N/A   Clear
7:14 PM 87.8 °F 92.6 °F 69.8 °F 55% 29.83 in 10.0 mi South 4.6 mph - N/A   Clear
7:34 PM 87.8 °F 93.8 °F 71.6 °F 58% 29.84 in 10.0 mi South 4.6 mph - N/A   Clear
7:54 PM 87.8 °F 93.8 °F 71.6 °F 58% 29.85 in 10.0 mi South 4.6 mph - N/A   Clear
8:14 PM 86.0 °F 91.8 °F 71.6 °F 62% 29.84 in 10.0 mi Calm Calm - N/A   Clear
8:34 PM 86.0 °F 91.8 °F 71.6 °F 62% 29.86 in 10.0 mi NW 6.9 mph - N/A   Clear
8:54 PM 84.2 °F 89.6 °F 71.6 °F 66% 29.86 in 10.0 mi Calm Calm - N/A   Scattered Clouds
9:14 PM 84.2 °F 89.6 °F 71.6 °F 66% 29.86 in 10.0 mi NNW 3.5 mph - N/A Thunderstorm Thunderstorm
9:34 PM 82.4 °F 88.2 °F 73.4 °F 74% 29.87 in 7.0 mi North 4.6 mph - N/A Rain , Thunderstorm Rain
9:54 PM 75.2 °F - 71.6 °F 89% 29.92 in 4.0 mi WNW 19.6 mph - 0.27 in Rain , Thunderstorm Heavy Thunderstorms and Rain
10:14 PM 73.4 °F - 71.6 °F 94% 29.92 in 5.0 mi South 5.8 mph - 0.43 in Rain , Thunderstorm Light Thunderstorms and Rain
10:34 PM 73.4 °F - 68.0 °F 83% 29.93 in 10.0 mi South 6.9 mph - 0.47 in Rain , Thunderstorm Thunderstorms and Rain
10:54 PM 71.6 °F - 69.8 °F 94% 29.90 in 10.0 mi SE 6.9 mph - 0.50 in Rain , Thunderstorm Thunderstorms and Rain
11:14 PM 73.4 °F - 69.8 °F 88% 29.89 in 10.0 mi SW 3.5 mph - 0.02 in Rain Rain
11:34 PM 71.6 °F - 69.8 °F 94% 29.88 in 10.0 mi South 4.6 mph - 0.04 in Rain , Thunderstorm Rain
11:54 PM 71.6 °F - 69.8 °F 94% 29.89 in 10.0 mi South 10.4 mph - 0.06 in Rain Light Rain